Date String (YYYY-MM-DD hh:mm:ss) UTC,Instrument flags,absolute air pressure of the measurement (hPa),sample flow rate (lpm),inlet stack bypass flow (lpm),air temperature of the measurement (°C),ambient temperature measured by the external sensor (°C),aerosol sample conditioner tube jacket temperature (°C),OPC LED temperature (°C),internal box temperature (°C),relative humidity of the measurement (%),span deviation,mass concentration of particles derived from Lorenz-Mie calculation of OPC scattering (μg/m³),mass concentration of particles derived from Lorenz-Mie calculation of OPC scattering (μg/m³),mass concentration of particles derived from Lorenz-Mie calculation of OPC scattering (μg/m³)
DateTimeUTC,F1_M11,P_M11,Q1_M11,Q2_M11,T1_M11,T2_M11,T3_M11,T4_M11,T5_M11,U1_M11,ZSPAN_M11,X0_M11,X2_M11,X1_M11
2024-04-03 09:00:00,SystemResetWarning,0830.7,4.99,000.00,022.4,021.6,000.0,031.0,024.2,15.2,0000.0,0005.00,0002.27,0001.63
2024-04-03 09:01:00,SystemResetWarning,0830.7,5.00,000.00,022.4,021.6,000.0,031.0,024.2,15.2,0000.0,0004.53,0002.29,0001.65
2024-04-03 09:02:00,SystemResetWarning,0830.7,5.00,000.00,022.4,021.6,000.0,031.0,024.2,15.1,0000.0,0003.46,0002.29,0001.66
2024-04-03 09:03:00,SystemResetWarning,0830.7,5.01,000.00,022.4,021.6,000.0,031.0,024.2,15.2,0000.0,0003.37,0002.26,0001.66
2024-04-03 09:04:00,SystemResetWarning,0830.7,5.00,000.00,022.4,021.6,000.0,031.0,024.2,15.4,0000.0,0003.41,0002.26,0001.68
2024-04-03 09:05:00,SystemResetWarning,0830.7,5.00,000.00,022.4,021.6,000.0,031.0,024.2,15.3,0000.0,0003.48,0002.29,0001.69
2024-04-03 09:06:00,SystemResetWarning,0830.8,5.00,000.00,022.4,021.6,000.0,031.0,024.2,15.3,0000.0,0003.46,0002.28,0001.69
2024-04-03 09:07:00,SystemResetWarning,0830.7,5.00,000.00,022.4,021.6,000.0,030.9,024.2,15.3,0000.0,0003.44,0002.28,0001.71
2024-04-03 09:08:00,SystemResetWarning,0830.7,5.00,000.00,022.4,021.5,000.0,030.9,024.2,15.1,0000.0,0003.52,0002.29,0001.73
2024-04-03 09:09:00,SystemResetWarning,0830.7,4.99,000.00,022.4,021.5,000.0,030.9,024.2,15.2,0000.0,0003.60,0002.32,0001.74
2024-04-03 09:10:00,SystemResetWarning,0830.7,5.01,000.00,022.3,021.5,000.0,030.9,024.1,15.4,0000.0,0003.64,0002.32,0001.75
2024-04-03 09:11:00,SystemResetWarning,0830.7,5.01,000.00,022.3,021.5,000.0,030.9,024.1,15.4,0000.0,0003.97,0002.41,0001.77
2024-04-03 09:12:00,SystemResetWarning,0830.7,5.00,000.00,022.3,021.5,000.0,030.9,024.1,15.3,0000.0,0004.13,0002.43,0001.77
2024-04-03 09:13:00,SystemResetWarning,0830.7,4.99,000.00,022.3,021.5,000.0,030.9,024.1,15.3,0000.0,0004.31,0002.47,0001.76
2024-04-03 09:14:00,SystemResetWarning,0830.7,5.00,000.00,022.3,021.5,000.0,030.9,024.1,15.1,0000.0,0004.65,0002.59,0001.77
2024-04-03 09:15:00,SystemResetWarning,0830.7,4.99,000.00,022.3,021.5,000.0,030.9,024.1,15.1,0000.0,0004.53,0002.56,0001.77
2024-04-03 09:16:00,SystemResetWarning,0830.7,5.01,000.00,022.3,021.5,000.0,030.9,024.1,15.1,0000.0,0004.41,0002.52,0001.76
2024-04-03 09:17:00,SystemResetWarning,0830.7,5.01,000.00,022.3,021.5,000.0,030.9,024.1,15.1,0000.0,0004.43,0002.54,0001.78
2024-04-03 09:18:00,SystemResetWarning,0830.7,4.99,000.00,022.3,021.5,000.0,030.9,024.1,15.3,0000.0,0004.37,0002.53,0001.78
2024-04-03 09:19:00,SystemResetWarning,0830.7,4.99,000.00,022.3,021.5,000.0,030.8,024.1,15.3,0000.0,0004.45,0002.58,0001.79
2024-04-03 09:20:00,SystemResetWarning,0830.7,5.00,000.00,022.3,021.5,000.0,030.8,024.1,15.2,0000.0,0004.46,0002.58,0001.78
2024-04-03 09:21:00,SystemResetWarning,0830.7,5.01,000.00,022.2,021.5,000.0,030.8,024.1,15.4,0000.0,0004.45,0002.58,0001.78
2024-04-03 09:22:00,SystemResetWarning,0830.7,5.01,000.00,022.2,021.5,000.0,030.8,024.1,15.4,0000.0,0004.35,0002.56,0001.77
2024-04-03 09:23:00,SystemResetWarning,0830.7,4.99,000.00,022.2,021.5,000.0,030.8,024.1,15.5,0000.0,0004.14,0002.51,0001.77
2024-04-03 09:24:00,SystemResetWarning,0830.7,4.99,000.00,022.2,021.4,000.0,030.8,024.1,15.4,0000.0,0004.22,0002.56,0001.79
2024-04-03 09:25:00,SystemResetWarning,0830.7,5.00,000.00,022.2,021.5,000.0,030.8,024.0,15.5,0000.0,0004.09,0002.53,0001.80
2024-04-03 09:26:00,SystemResetWarning,0830.7,5.02,000.00,022.2,021.5,000.0,030.8,024.0,15.5,0000.0,0004.05,0002.50,0001.80
2024-04-03 09:27:00,SystemResetWarning,0830.7,5.00,000.00,022.2,021.5,000.0,030.8,024.1,15.4,0000.0,0004.22,0002.54,0001.81
2024-04-03 09:28:00,SystemResetWarning,0830.7,4.99,000.00,022.2,021.4,000.0,030.8,024.0,15.5,0000.0,0004.33,0002.56,0001.81
2024-04-03 09:29:00,SystemResetWarning,0830.7,4.99,000.00,022.2,021.4,000.0,030.8,024.0,15.5,0000.0,0004.40,0002.59,0001.81
2024-04-03 09:30:00,SystemResetWarning,0830.6,5.00,000.00,022.2,021.4,000.0,030.8,024.0,15.5,0000.0,0004.40,0002.55,0001.81
2024-04-03 09:31:00,SystemResetWarning,0830.6,5.01,000.00,022.2,021.4,000.0,030.8,024.0,15.3,0000.0,0004.59,0002.55,0001.81
2024-04-03 09:32:00,SystemResetWarning,0830.6,5.01,000.00,022.2,021.4,000.0,030.8,024.0,15.2,0000.0,0004.69,0002.61,0001.82
2024-04-03 09:33:00,SystemResetWarning,0830.6,5.00,000.00,022.2,021.4,000.0,030.8,024.0,15.5,0000.0,0004.66,0002.61,0001.83
2024-04-03 09:34:00,SystemResetWarning,0830.6,5.00,000.00,022.2,021.4,000.0,030.8,024.0,15.7,0000.0,0004.79,0002.65,0001.83
2024-04-03 09:35:00,SystemResetWarning,0830.5,5.00,000.00,022.2,021.4,000.0,030.8,024.0,15.5,0000.0,0004.70,0002.62,0001.82
2024-04-03 09:36:00,SystemResetWarning,0830.5,5.00,000.00,022.2,021.4,000.0,030.8,024.0,15.6,0000.0,0004.54,0002.58,0001.81
2024-04-03 09:37:00,SystemResetWarning,0830.5,5.00,000.00,022.2,021.4,000.0,030.8,024.0,15.9,0000.0,0004.39,0002.54,0001.81
2024-04-03 09:38:00,SystemResetWarning,0830.7,5.00,000.00,022.2,021.4,000.0,030.8,024.0,15.5,0000.0,0004.28,0002.53,0001.81
2024-04-03 09:39:00,SystemResetWarning,0830.4,5.00,000.00,022.2,021.4,000.0,030.7,024.0,15.5,0000.0,0004.16,0002.52,0001.82
2024-04-03 09:40:00,SystemResetWarning,0830.4,5.00,000.00,022.1,021.3,000.0,030.7,023.9,15.7,0000.0,0004.10,0002.50,0001.83
2024-04-03 09:41:00,SystemResetWarning,0830.5,5.00,000.00,022.1,021.3,000.0,030.7,023.9,15.6,0000.0,0004.06,0002.54,0001.83
2024-04-03 09:42:00,SystemResetWarning,0830.4,5.00,000.00,022.1,021.3,000.0,030.7,023.9,15.5,0000.0,0003.81,0002.52,0001.83
2024-04-03 09:43:00,SystemResetWarning,0830.4,5.00,000.00,022.1,021.3,000.0,030.7,023.9,15.3,0000.0,0003.80,0002.49,0001.83
2024-04-03 09:44:00,SystemResetWarning,0830.7,5.00,000.00,022.1,021.3,000.0,030.7,023.9,15.8,0000.0,0004.99,0002.44,0001.82
2024-04-03 09:45:00,SystemResetWarning,0830.5,5.00,000.00,022.1,021.3,000.0,030.7,023.9,15.9,0000.0,0005.63,0002.42,0001.82
2024-04-03 09:46:00,SystemResetWarning,0830.6,5.00,000.00,022.1,021.3,000.0,030.7,023.9,15.9,0000.0,0005.58,0002.42,0001.82
2024-04-03 09:47:00,SystemResetWarning,0830.7,5.00,000.00,022.1,021.3,000.0,030.7,023.9,15.7,0000.0,0005.50,0002.39,0001.82
2024-04-03 09:48:00,SystemResetWarning,0830.5,5.00,000.00,022.1,021.3,000.0,030.7,023.9,15.1,0000.0,0005.55,0002.39,0001.81
2024-04-03 09:49:00,SystemResetWarning,0830.6,4.99,000.00,022.1,021.3,000.0,030.7,023.9,15.3,0000.0,0005.54,0002.37,0001.80
2024-04-03 09:50:00,SystemResetWarning,0830.4,4.99,000.00,022.1,021.3,000.0,030.6,023.9,15.5,0000.0,0005.46,0002.33,0001.78
2024-04-03 09:51:00,SystemResetWarning,0830.7,5.00,000.00,022.1,021.3,000.0,030.6,023.9,15.6,0000.0,0005.42,0002.31,0001.77
2024-04-03 09:52:00,SystemResetWarning,0830.7,4.99,000.00,022.1,021.3,000.0,030.6,023.9,15.9,0000.0,0005.77,0002.27,0001.77
2024-04-03 09:53:00,SystemResetWarning,0830.5,5.00,000.00,022.1,021.3,000.0,030.6,023.9,16.0,0000.0,0006.91,0002.26,0001.77
2024-04-03 09:54:00,SystemResetWarning,0830.7,5.01,000.00,022.0,021.3,000.0,030.6,023.8,15.9,0000.0,0006.84,0002.26,0001.78
2024-04-03 09:55:00,SystemResetWarning,0830.5,5.00,000.00,022.0,021.2,000.0,030.6,023.8,15.8,0000.0,0005.99,0002.26,0001.77
2024-04-03 09:56:00,SystemResetWarning,0830.6,5.01,000.00,022.0,021.2,000.0,030.6,023.8,15.7,0000.0,0005.02,0002.28,0001.77
2024-04-03 09:57:00,SystemResetWarning,0830.7,5.01,000.00,022.0,021.2,000.0,030.6,023.8,15.7,0000.0,0005.43,0002.26,0001.76
2024-04-03 09:58:00,SystemResetWarning,0830.5,5.00,000.00,022.0,021.2,000.0,030.6,023.8,15.8,0000.0,0005.44,0002.27,0001.75
2024-04-03 09:59:00,SystemResetWarning,0830.5,4.99,000.00,022.0,021.2,000.0,030.6,023.8,16.1,0000.0,0005.44,0002.26,0001.75
